User: anonymous   Login
Location: Unspecified
(0.0000°N, 0.0000°E)
Time: 22:51:56
(UTC+00:00)
Language:

Geosat - Orbit

View from above orbital plane
View from above orbital plane
View from above satellite
View from above satellite

Ground track
Ground track

The orbit data is extracted from the following two-line orbital elements,

1 15595U 85021A   23083.09021791  .00000504  00000-0  20873-3 0  9998
2 15595 108.0527 144.8776 0002648 273.9559  86.1280 14.38515418992822
Epoch (UTC): 24 March 2023 02:09:54
Eccentricity: 0.0002648
inclination: 108.0527°
perigee height: 761 km
apogee height: 765 km
right ascension of ascending node: 144.8776°
argument of perigee: 273.9559°
revolutions per day: 14.38515418
mean anomaly at epoch: 86.1280°
orbit number at epoch: 99282

The dashed part of the orbit path shows where the satellite is in the earth's shadow,  

DLR